Regional Weather Roundup
Issued by NWS Goodland, KS

Home | Current Version | Previous Version | Text Only | Print | Product List | Glossary Off
Versions: 1 2 3 4 5 6 7 8 9 10 11 12 13 14 15 16 17 18 19 20 21 22 23 24 25 26 27 28 29 30 31 32 33 34 35 36 37 38 39 40 41 42 43 44 45 46 47 48 49 50

000
ASUS43 KGLD 260908
RWRGLD

GOODLAND FORECAST AREA HOURLY WEATHER ROUNDUP
NATIONAL WEATHER SERVICE GOODLAND KS
300 AM MDT FRI AUG 26 2016

...OFFICIAL OBSERVATIONS...

CITY           SKY/WX    TMP DP  RH WIND       PRES   REMARKS
GOODLAND KS    MOCLDY    55  52  89 SE5       30.18F
HILL CITY KS   FAIR      58  57  97 CALM      30.15S
IMPERIAL NEB   FAIR      54  50  86 S5        30.18S
MCCOOK NEB     FAIR      57  53  86 NE5       30.16F
AKRON CO       FAIR      56  52  86 S10       30.20S
BURLINGTON CO  FAIR      54  49  83 SE8       30.19F
LIMON CO       CLOUDY    57  55  93 S10       30.22F
$$

...UNOFFICIAL OBSERVATIONS...

CITY           SKY/WX    TMP DP  RH WIND       PRES   REMARKS
COLBY KS       CLEAR     57  55  94 E3        30.18S
LENORA KS        N/A     58  32  37 MISG        N/A
NORTON KS      CLOUDY    57  52  82 N5        30.15S
SHARON SPRINGS   N/A     59  55  87 SE5G12      N/A
TRENTON NEB      N/A     55  32  41 MISG        N/A
KIT CARSON CO    N/A     60  55  83 MISG        N/A
$$




USA.gov is the U.S. government's official web portal to all federal, state and local government web resources and services.